ON4CDJ-13 Weather Reports


time (UTC)temp
F
wind
direction
speed
knots
gust
knots
rain 1hr
in
rain 24hr
in
rain mn
in
humidity
%
barometer
mb
20260507192536 56 0.0 0.0 0.00 0.00 0.00 68 1017.4
20260507191516 56 0.0 0.9 0.00 0.00 0.00 66 1017.5
20260507190607 56 0.0 0.9 0.00 0.00 0.00 66 1017.4
20260507185546 57 0.0 0.9 0.00 0.00 0.00 64 1017.3
20260507184522 57 181 0.0 0.9 0.00 0.00 0.00 63 1017.3
20260507183610 57 0.0 0.0 0.00 0.00 0.00 63 1017.3
20260507182611 57 0.0 0.0 0.00 0.00 0.00 61 1017.3
20260507181530 58 0.0 0.0 0.00 0.00 0.00 61 1017.3
20260507180610 58 0.0 0.0 0.00 0.00 0.00 61 1017.3
20260507175551 58 0.0 0.0 0.00 0.00 0.00 58 1017.3
20260507174523 59 151 0.0 1.7 0.00 0.00 0.00 56 1017.3
20260507173604 59 106 0.0 1.7 0.00 0.00 0.00 55 1017.2
20260507172606 59 0.0 0.9 0.00 0.00 0.00 56 1017.2
20260507171535 59 87 0.0 1.7 0.00 0.00 0.00 52 1017.2
20260507170635 59 117 0.0 2.6 0.00 0.00 0.00 53 1017.3
20260507165607 59 300 0.9 1.7 0.00 0.00 0.00 54 1017.3
20260507164530 60 0.0 1.7 0.00 0.00 0.00 54 1017.3
20260507163558 60 216 0.0 0.9 0.00 0.00 0.00 52 1017.3
20260507162604 60 250 0.0 0.9 0.00 0.00 0.00 53 1017.3
20260507161608 60 0.0 1.7 0.00 0.00 0.00 53 1017.3
20260507160522 59 77 0.9 2.6 0.00 0.00 0.00 53 1017.2
20260507155648 60 45 0.9 2.6 0.00 0.00 0.00 55 1017.2
20260507154544 60 61 1.7 3.5 0.00 0.00 0.00 53 1017.3
20260507153528 60 80 1.7 3.5 0.00 0.00 0.00 54 1017.2
20260507152608 60 115 1.7 5.2 0.00 0.00 0.00 55 1017.2
20260507151551 60 58 1.7 2.6 0.00 0.00 0.00 53 1017.2
20260507150600 60 94 0.9 2.6 0.00 0.00 0.00 53 1017.2
20260507145612 60 103 0.9 1.7 0.00 0.00 0.00 51 1017.2
20260507144556 60 122 0.9 3.5 0.00 0.00 0.00 53 1017.1
20260507143543 60 43 0.9 1.7 0.00 0.00 0.00 53 1017.1
20260507142544 59 74 1.7 2.6 0.00 0.00 0.00 54 1017.2
20260507141607 60 55 1.7 3.5 0.00 0.00 0.00 55 1017.3
20260507140542 60 127 0.9 2.6 0.00 0.00 0.00 55 1017.3
20260507135527 59 44 0.9 2.6 0.00 0.00 0.00 55 1017.3
20260507134627 59 177 0.9 1.7 0.00 0.00 0.00 58 1017.4
20260507133550 59 314 1.7 3.5 0.00 0.00 0.00 57 1017.4
20260507132538 59 293 0.0 1.7 0.00 0.00 0.00 57 1017.4
20260507131620 59 254 0.0 1.7 0.00 0.00 0.00 55 1017.4
20260507130559 59 56 1.7 3.5 0.00 0.00 0.00 55 1017.4
20260507125602 59 105 0.9 2.6 0.00 0.00 0.00 55 1017.3
20260507124526 59 206 0.9 2.6 0.00 0.00 0.00 55 1017.3
20260507123609 60 72 1.7 2.6 0.00 0.00 0.00 55 1017.2
20260507122548 60 270 0.9 5.2 0.00 0.00 0.00 57 1017.2
20260507121530 60 31 0.9 2.6 0.00 0.00 0.00 57 1017.2
20260507120618 60 316 0.9 2.6 0.00 0.00 0.00 57 1017.2
20260507115546 61 331 1.7 3.5 0.00 0.00 0.00 55 1017.2
20260507114531 62 305 3.5 7.0 0.00 0.00 0.00 54 1017.2
20260507113620 63 144 0.9 3.5 0.00 0.00 0.00 45 1017.1
20260507112601 62 128 2.6 6.1 0.00 0.00 0.00 49 1017.0
20260507111530 61 170 0.9 2.6 0.00 0.00 0.00 49 1017.2
20260507110717 62 145 2.6 5.2 0.00 0.00 0.00 47 1017.3
20260507105609 60 67 1.7 2.6 0.00 0.00 0.00 51 1017.3
20260507104538 60 81 1.7 3.5 0.00 0.00 0.00 52 1017.4
20260507103755 61 333 2.6 5.2 0.00 0.00 0.00 53 1017.5
20260507102600 62 351 2.6 6.1 0.00 0.00 0.00 51 1017.3
20260507101544 62 122 2.6 3.5 0.00 0.00 0.00 50 1017.5
20260507100530 61 183 0.9 5.2 0.00 0.00 0.00 51 1017.4
20260507095603 61 113 1.7 3.5 0.00 0.00 0.00 49 1017.3
20260507094545 60 88 1.7 5.2 0.00 0.00 0.00 53 1017.3
20260507093529 59 88 0.9 3.5 0.00 0.00 0.00 56 1017.2
20260507092614 60 22 1.7 3.5 0.00 0.00 0.00 55 1017.3
20260507091554 60 65 1.7 5.2 0.00 0.00 0.00 57 1017.2
20260507090539 58 135 0.9 3.5 0.00 0.00 0.00 62 1017.1
20260507085616 57 302 1.7 3.5 0.00 0.00 0.00 65 1017.0
20260507084558 58 316 0.9 2.6 0.00 0.00 0.00 66 1017.1
20260507083538 57 293 0.9 2.6 0.00 0.00 0.00 68 1017.1
20260507082523 58 193 0.0 0.9 0.00 0.00 0.00 66 1017.1
20260507081601 56 177 0.9 2.6 0.00 0.00 0.00 67 1017.0
20260507080544 56 185 0.9 2.6 0.00 0.00 0.00 70 1017.1
20260507075526 55 99 0.9 2.6 0.00 0.00 0.00 73 1017.0
20260507074623 54 303 0.9 1.7 0.00 0.00 0.00 76 1017.0
20260507073545 53 96 0.9 3.5 0.00 0.00 0.00 79 1017.0
20260507072529 51 307 0.9 2.6 0.00 0.00 0.00 83 1017.0
20260507071517 51 310 0.9 1.7 0.00 0.00 0.00 83 1016.9
20260507070605 51 49 0.0 1.7 0.00 0.00 0.00 84 1016.8
20260507065548 51 46 0.0 2.6 0.00 0.00 0.00 85 1016.8
20260507064528 50 82 0.9 2.6 0.00 0.00 0.00 86 1016.8
20260507063632 50 349 0.9 3.5 0.00 0.00 0.00 88 1016.8
20260507062635 50 139 0.9 3.5 0.00 0.00 0.00 89 1016.7
20260507061537 50 27 0.0 1.7 0.00 0.00 0.00 91 1016.6
20260507060616 49 308 0.0 1.7 0.00 0.00 0.00 92 1016.6
20260507055557 48 0.0 0.0 0.00 0.00 0.00 93 1016.5
20260507054603 48 0.0 0.9 0.00 0.00 0.00 93 1016.4
20260507053530 47 272 0.0 0.9 0.00 0.00 0.00 94 1016.3
20260507052517 47 0.0 0.0 0.00 0.00 0.00 94 1016.2
20260507051606 46 0.0 0.0 0.00 0.00 0.00 94 1016.0
20260507050557 46 0.0 0.0 0.00 0.00 0.00 94 1016.0
20260507045542 46 0.0 0.0 0.00 0.00 0.00 94 1016.0
20260507044525 45 0.0 0.0 0.00 0.00 0.00 94 1015.8
20260507043606 45 0.0 0.0 0.00 0.00 0.00 94 1015.7
20260507042547 45 0.0 0.0 0.00 0.00 0.00 94 1015.8
20260507041531 45 0.0 0.0 0.00 0.00 0.00 94 1015.7
20260507040611 45 0.0 0.0 0.00 0.00 0.00 93 1015.5
20260507035554 45 0.0 0.0 0.00 0.00 0.00 94 1015.3
20260507034539 44 0.0 0.0 0.00 0.00 0.00 93 1015.3
20260507033523 45 0.0 0.0 0.00 0.00 0.00 93 1015.4
20260507032625 44 0.0 0.0 0.00 0.00 0.00 93 1015.3
20260507031545 44 0.0 0.0 0.00 0.00 0.00 93 1015.1
20260507030529 44 0.0 0.0 0.00 0.00 0.00 93 1015.1
20260507025630 44 0.0 0.0 0.00 0.00 0.00 93 1015.1
20260507024620 44 0.0 0.0 0.00 0.00 0.00 93 1015.1
20260507023539 44 0.0 0.0 0.00 0.00 0.00 93 1015.1
20260507022518 44 0.0 0.0 0.00 0.00 0.00 93 1015.0
20260507021620 44 0.0 0.0 0.00 0.00 0.00 92 1015.0
20260507020545 44 0.0 0.0 0.00 0.00 0.00 92 1014.8
20260507015528 44 0.0 0.0 0.00 0.00 0.00 92 1014.8
20260507014617 44 0.0 0.0 0.00 0.00 0.00 91 1014.6
20260507013554 44 184 0.0 0.9 0.00 0.00 0.00 91 1014.6
20260507012539 43 0.0 0.0 0.00 0.00 0.00 91 1014.6
20260507011541 44 0.0 0.0 0.00 0.00 0.00 90 1014.6
20260507010608 45 0.0 0.0 0.00 0.00 0.00 90 1014.7
20260507005543 45 0.0 0.0 0.00 0.00 0.00 90 1014.6
20260507004526 45 0.0 0.0 0.00 0.00 0.00 90 1014.6
20260507003610 45 0.0 0.0 0.00 0.00 0.00 91 1014.5
20260507002549 45 0.0 0.0 0.00 0.00 0.00 90 1014.6
20260507001529 46 0.0 0.0 0.00 0.00 0.00 90 1014.6
20260507000617 46 0.0 0.0 0.00 0.00 0.00 89 1014.5
20260506235623 47 0.0 0.0 0.00 0.00 0.00 89 1014.5
20260506234545 47 0.0 0.0 0.00 0.00 0.00 88 1014.3
20260506233529 47 0.0 0.0 0.00 0.00 0.00 87 1014.4
20260506232603 48 0.0 0.0 0.00 0.00 0.00 87 1014.3
20260506231538 47 0.0 0.0 0.00 0.00 0.00 87 1014.3
20260506230523 47 0.0 0.0 0.00 0.00 0.00 88 1014.2
20260506225607 47 0.0 0.0 0.00 0.00 0.00 88 1014.1
20260506224604 47 0.0 0.0 0.00 0.00 0.00 87 1014.1
20260506223529 47 0.0 0.0 0.00 0.00 0.00 87 1014.2
20260506222607 47 0.0 0.0 0.00 0.00 0.00 87 1014.1
20260506221553 47 0.0 0.0 0.00 0.00 0.00 86 1014.1
20260506220534 46 0.0 0.0 0.00 0.00 0.00 85 1014.0
20260506215614 46 0.0 0.0 0.00 0.00 0.00 85 1014.0
20260506214558 46 0.0 0.0 0.00 0.00 0.00 85 1014.0
20260506213537 46 0.0 0.0 0.00 0.00 0.00 84 1013.9
20260506212617 46 0.0 0.0 0.00 0.00 0.00 84 1013.9
20260506211552 46 0.0 0.0 0.00 0.00 0.00 82 1013.7
20260506210556 47 0.0 0.0 0.00 0.00 0.00 81 1013.6
20260506205520 47 0.0 0.0 0.00 0.00 0.00 81 1013.6
20260506204609 47 0.0 0.0 0.00 0.00 0.00 78 1013.5
20260506203544 48 0.0 0.0 0.00 0.00 0.00 75 1013.4
20260506202529 49 0.0 0.0 0.00 0.00 0.00 74 1013.3
20260506201655 50 0.0 0.0 0.00 0.00 0.00 72 1013.2
20260506200553 51 0.0 0.0 0.00 0.00 0.00 69 1013.2
20260506195534 52 0.0 0.0 0.00 0.00 0.00 67 1013.2
20260506194617 52 0.0 1.7 0.00 0.00 0.00 66 1013.1
20260506193637 53 68 0.0 0.9 0.00 0.00 0.00 65 1013.0